Regional Weather Roundup
Issued by NWS

Home | Current Version | Previous Version | Graphics & Text | Print | Product List | Glossary On
Versions: 1 2 3 4 5 6 7 8 9 10 11 12 13 14 15 16 17 18 19 20 21 22 23 24 25 26 27 28 29 30 31 32 33 34 35 36 37 38 39 40 41 42 43 44 45 46 47 48 49 50
037
ASUS43 KLOT 250808
RWRIL

ILLINOIS REGIONAL WEATHER ROUNDUP
NATIONAL WEATHER SERVICE CHICAGO/ROMEOVILLE IL
200 AM CST SAT NOV 25 2017

NOTE: "FAIR" INDICATES FEW OR NO CLOUDS BELOW 12,000 FEET WITH NO
SIGNIFICANT WEATHER AND/OR OBSTRUCTIONS TO VISIBILITY.

* THESE STATIONS ARE NOT UNDER NWS QUALITY CONTROL. THEY ALSO MAY NOT
  REPORT WEATHER SUCH AS PRECIPITATION OR FOG.

ILZ001-002-007-009-015-016-024-250900-
NORTHWEST ILLINOIS

CITY           SKY/WX    TMP DP  RH WIND       PRES   REMARKS
MOLINE         PTCLDY    45  35  68 W10       29.83R
STERLING*      CLEAR     43  39  86 W10       29.79R
SAVANNA*       PTCLDY    44  37  74 NW8       29.81R
$$

ILZ003-004-008-010-011-017-018-250900-
NORTH CENTRAL ILLINOIS

CITY           SKY/WX    TMP DP  RH WIND       PRES   REMARKS
ROCKFORD       PTCLDY    46  37  71 NW10      29.76R
FREEPORT*      CLEAR     43  38  80 NW13G18   29.78R
ROCHELLE*      CLEAR     45  40  82 NW12      29.75R
DE KALB*       CLEAR     45  40  81 NW9       29.74R
PERU*          CLEAR     44  40  86 W12       29.77R
$$

ILZ005-006-012>014-019>023-250900-
NORTHEAST ILLINOIS

CITY           SKY/WX    TMP DP  RH WIND       PRES   REMARKS
CHICAGO-OHARE  CLEAR     51  40  65 NW22G30   29.68R
CHICAGO-MIDWAY PTCLDY    52  44  74 NW15G25   29.69R
AURORA         CLEAR     47  40  76 NW20G25   29.72R
LANSING*       CLEAR     47  42  84 W5        29.68R
JOLIET*        CLEAR     50  44  79 W7        29.71R
WAUKEGAN       PTCLDY    48  38  68 NW18G30   29.68R
DUPAGE AIRPORT CLEAR     49  42  77 NW17      29.70R
KANKAKEE*      CLEAR     44  39  85 W9        29.72R
WHEELING       PTCLDY    50  42  74 NW13      29.70R
MORRIS*        CLEAR     45  41  85 NW10      29.71R
ROMEOVILLE*    CLEAR     48  42  82 NW10      29.71R
NORTHERLY ISL    N/A     52  41  66 W14         N/A
$$

LMZ740>746-250900-
SOUTHERN LAKE MICHIGAN

STATION/POSITION SKY/WX   TEMP    WIND        PRES    VSBY  WAVE
                          AIR SEA DIR/SP/G                  HT/PER
                          (F)     (DEG/KT/KT) (MB)    (MI)  (FT/S)
SOUTHERN BUOY              49 47  320/ 17/ 19 1002.4          3/ 6
HARRISON CRIB              53     310/ 19/ 20   N/A
BURNHAM HARBOR             53     290/ 13/ 16   N/A
CALUMET HARBOR             52     300/  6/  9 1004.3R
BURNS HARBOR               50     250/ 11/ 13 1005.4R
MICHIGAN CITY              49     260/ 14/ 16   N/A
$$

ILZ025>027-034>036-040-047-049-050-058-095>099-250900-
WEST-CENTRAL ILLINOIS

CITY           SKY/WX    TMP DP  RH WIND       PRES   REMARKS
QUINCY         CLEAR     45  36  70 NW10      29.88R
GALESBURG*     CLEAR     43  38  82 NW9       29.85R
MACOMB*        CLEAR     44  37  77 NW15      29.88R
JACKSONVILLE*  CLEAR     49  40  71 MISG      29.84R
PITTSFIELD*    CLEAR     49  40  71 NW10      29.87R
$$

ILZ028>032-037-038-041>044-048-051>054-059>061-250900-
CENTRAL ILLINOIS

CITY           SKY/WX    TMP DP  RH WIND       PRES   REMARKS
PONTIAC        CLEAR     48  46  93 NW15      29.75R
BLOOMINGTON    CLEAR     48  43  82 NW15G22   29.78R
DECATUR        CLOUDY    50  41  71 NW13G18   29.78R
PEORIA         CLEAR     47  40  76 NW9       29.81R
LACON*         CLEAR     45  41  85 W10G18    29.79R
LINCOLN*       CLEAR     49  44  80 NW6       29.80R
SPRINGFIELD    CLEAR     51  43  74 NW14G22   29.82R
TAYLORVILLE    PTCLDY    51  42  71 NW14      29.80R
$$

ILZ033-039-045-046-055>057-062-063-250900-
EAST-CENTRAL ILLINOIS

CITY           SKY/WX    TMP DP  RH WIND       PRES   REMARKS
CHAMPAIGN      CLOUDY    42  37  82 W10       29.76R
DANVILLE*      CLOUDY    44  38  78 W8        29.70R
RANTOUL*       CLOUDY    47  42  82 NW13      29.74R
MATTOON        CLOUDY    50  39  66 W10       29.76R
PARIS*         CLOUDY    45  38  77 SW10      29.76R
$$

ILZ079-100>102-250900-
SOUTHWEST ILLINOIS

CITY           SKY/WX    TMP DP  RH WIND       PRES   REMARKS
ALTON          CLOUDY    55  44  65 NW9G20    29.83R
BELLEVILLE     PTCLDY    58  41  54 NW9       29.81R
CAHOKIA*       PTCLDY    58  41  53 NW18G29   29.82R
SPARTA*        CLOUDY    55  37  50 W3        29.82R
$$

ILZ064>066-069>071-074>076-080>082-084>086-088>090-092>094-250900-
SOUTH-CENTRAL ILLINOIS

CITY           SKY/WX    TMP DP  RH WIND       PRES   REMARKS
CARBONDALE     CLOUDY    54  37  52 SW9       29.82R
CAIRO*         CLOUDY    52  37  56 SW7       29.85R
EFFINGHAM*     PTCLDY    47  38  71 SW5       29.80R
MARION         CLOUDY    55  37  49 SW7       29.81R
MT. VERNON     CLOUDY    50  38  63 SW6       29.80R
CENTRALIA*     CLOUDY    51  40  65 W8        29.80R
SALEM*         CLOUDY    52  38  58 W8        29.80R
METROPOLIS*    CLOUDY    52  36  53 SW6       29.84S
$$

ILZ067-068-072-073-078-083-087-091-250900-
SOUTHEAST ILLINOIS

CITY           SKY/WX    TMP DP  RH WIND       PRES   REMARKS
LAWRENCEVILLE  CLOUDY    50  36  58 W7        29.77R
FLORA*         PTCLDY    53  38  55 SW5       29.78R
FAIRFIELD*     CLOUDY    51  37  59 CALM      29.78R
HARRISBURG*    CLOUDY    53  37  53 SW9       29.81R
ROBINSON*      MOCLDY    48  37  64 SW10      29.77R
CARMI*         MOCLDY    53  36  52 SW14      29.79R
$$

ABBREVIATIONS USED IN REMARKS
   TC - TEMPERATURE IN CELSIUS
  WCI - WIND CHILL INDEX
   HX - HEAT INDEX
  VSB - VISIBILITY
$$





USA.gov is the U.S. government's official web portal to all federal, state and local government web resources and services.